When you browse on this site, cookies collect data to enhance your experience and personalize the content and advertising you see.
Visit our Privacy Policy to learn more. By continuing to use the site, you agree to this use of cookies and data.
  • In United Kingdom
  • List of Countries
  • For 7 days
  • Water Temperature
  • Weather Map
  • Weather Widgets
  • user-avatar
    Login

    Hourly Weather Abertridwr

    Today, 18 September, Wednesday

    Time Temperature Precipitation Wind Pressure Humidity
    00:00 +8°C° 0 mm 3 mps 759 mmHg 83%
    01:00 +8°C° 0 mm 3 mps 759 mmHg 85%
    02:00 +8°C° 0 mm 3 mps 759 mmHg 86%
    03:00 +8°C° 0 mm 2 mps 759 mmHg 88%
    04:00 +8°C° 0 mm 2 mps 759 mmHg 89%
    05:00 +7°C° 0 mm 2 mps 759 mmHg 90%
    06:00 +7°C° 0 mm 2 mps 760 mmHg 89%
    07:00 +10°C° 0 mm 1 mps 760 mmHg 84%
    08:00 +12°C° 0 mm 1 mps 760 mmHg 79%
    09:00 +14°C° 0 mm 1 mps 760 mmHg 74%
    10:00 +15°C° 0 mm 1 mps 760 mmHg 70%
    11:00 +16°C° 0 mm 1 mps 760 mmHg 65%
    12:00 +18°C° 0 mm 1 mps 760 mmHg 61%
    13:00 +19°C° 0 mm 1 mps 760 mmHg 61%
    14:00 +19°C° 0 mm 1 mps 760 mmHg 61%
    15:00 +19°C° 0 mm 1 mps 760 mmHg 62%
    16:00 +18°C° 0 mm 1 mps 760 mmHg 68%
    17:00 +16°C° 0 mm 1 mps 760 mmHg 73%
    18:00 +14°C° 0 mm 1 mps 760 mmHg 79%
    19:00 +14°C° 0 mm 1 mps 760 mmHg 81%
    20:00 +13°C° 0 mm 1 mps 760 mmHg 83%
    21:00 +12°C° 0 mm 1 mps 761 mmHg 85%
    22:00 +12°C° 0 mm 1 mps 761 mmHg 86%
    23:00 +11°C° 0 mm 1 mps 761 mmHg 86%

    Tomorrow, 19 September, Thursday

    Time Temperature Precipitation Wind Pressure Humidity
    00:00 +10°C° 0 mm 2 mps 761 mmHg 87%
    01:00 +10°C° 0 mm 2 mps 761 mmHg 87%
    02:00 +10°C° 0 mm 2 mps 761 mmHg 86%
    03:00 +9°C° 0 mm 2 mps 760 mmHg 86%
    04:00 +9°C° 0 mm 2 mps 760 mmHg 85%
    05:00 +9°C° 0 mm 2 mps 760 mmHg 85%
    06:00 +10°C° 0 mm 1 mps 760 mmHg 84%
    07:00 +12°C° 0 mm 1 mps 761 mmHg 80%
    08:00 +13°C° 0 mm 1 mps 761 mmHg 75%
    09:00 +15°C° 0 mm 2 mps 761 mmHg 71%
    10:00 +16°C° 0 mm 2 mps 761 mmHg 67%
    11:00 +17°C° 0 mm 2 mps 761 mmHg 64%
    12:00 +19°C° 0 mm 2 mps 761 mmHg 61%
    13:00 +19°C° 0 mm 2 mps 761 mmHg 61%
    14:00 +19°C° 0 mm 2 mps 761 mmHg 61%
    15:00 +19°C° 0 mm 2 mps 760 mmHg 62%
    16:00 +18°C° 0 mm 2 mps 760 mmHg 68%
    17:00 +17°C° 0 mm 2 mps 760 mmHg 74%
    18:00 +16°C° 0 mm 2 mps 759 mmHg 80%
    19:00 +15°C° 0 mm 2 mps 759 mmHg 82%
    20:00 +14°C° 0 mm 2 mps 760 mmHg 84%
    21:00 +13°C° 0 mm 2 mps 760 mmHg 86%
    22:00 +13°C° 0 mm 2 mps 759 mmHg 87%
    23:00 +12°C° 0 mm 2 mps 759 mmHg 88%

    Day after tomorrow, 20 September, Friday

    Time Temperature Precipitation Wind Pressure Humidity
    00:00 +12°C° 0 mm 2 mps 759 mmHg 89%
    01:00 +10°C° 0 mm 2 mps 759 mmHg 89%
    02:00 +10°C° 0 mm 3 mps 758 mmHg 90%
    03:00 +10°C° 0 mm 3 mps 758 mmHg 90%
    04:00 +9°C° 0 mm 3 mps 757 mmHg 91%
    05:00 +9°C° 0 mm 3 mps 757 mmHg 92%
    06:00 +9°C° 0 mm 3 mps 757 mmHg 93%
    07:00 +10°C° 0 mm 4 mps 756 mmHg 87%
    08:00 +12°C° 0 mm 5 mps 756 mmHg 82%
    09:00 +13°C° 0 mm 6 mps 756 mmHg 77%
    10:00 +14°C° 0 mm 6 mps 756 mmHg 71%
    11:00 +15°C° 0 mm 7 mps 755 mmHg 65%
    12:00 +17°C° 0 mm 7 mps 754 mmHg 59%
    13:00 +17°C° 0 mm 7 mps 754 mmHg 58%
    14:00 +17°C° 0 mm 7 mps 753 mmHg 57%
    15:00 +18°C° 0 mm 7 mps 752 mmHg 56%
    16:00 +16°C° 0 mm 7 mps 752 mmHg 58%
    17:00 +15°C° 0 mm 6 mps 751 mmHg 60%
    18:00 +14°C° 0 mm 6 mps 750 mmHg 63%
    19:00 +13°C° 0 mm 6 mps 750 mmHg 62%
    20:00 +13°C° 0 mm 6 mps 750 mmHg 61%
    21:00 +11°C° 0 mm 7 mps 750 mmHg 60%
    22:00 +10°C° 0 mm 6 mps 749 mmHg 63%
    23:00 +10°C° 0 mm 6 mps 748 mmHg 66%

    21 September, Saturday

    Time Temperature Precipitation Wind Pressure Humidity
    00:00 +10°C° 0 mm 5 mps 748 mmHg 69%
    01:00 +9°C° 0 mm 5 mps 747 mmHg 71%
    02:00 +9°C° 0 mm 5 mps 747 mmHg 73%
    03:00 +9°C° 0 mm 5 mps 746 mmHg 75%
    04:00 +9°C° 0 mm 5 mps 746 mmHg 77%
    05:00 +9°C° 0 mm 5 mps 745 mmHg 78%
    06:00 +9°C° 0 mm 5 mps 745 mmHg 79%
    07:00 +10°C° 0 mm 5 mps 745 mmHg 77%
    08:00 +13°C° 0 mm 5 mps 744 mmHg 75%
    09:00 +14°C° 0 mm 6 mps 744 mmHg 73%
    10:00 +16°C° 0 mm 6 mps 744 mmHg 72%
    11:00 +19°C° 0 mm 6 mps 744 mmHg 71%
    12:00 +20°C° 0 mm 6 mps 743 mmHg 70%
    13:00 +21°C° 0 mm 7 mps 743 mmHg 71%
    14:00 +21°C° 0 mm 7 mps 742 mmHg 71%
    15:00 +22°C° 0 mm 7 mps 742 mmHg 72%
    16:00 +21°C° 0.3 mm 7 mps 741 mmHg 77%
    17:00 +20°C° 0.3 mm 6 mps 741 mmHg 82%
    18:00 +19°C° 0.3 mm 5 mps 741 mmHg 87%
    19:00 +17°C° 0.2 mm 5 mps 740 mmHg 88%
    20:00 +16°C° 0.2 mm 5 mps 740 mmHg 90%
    21:00 +17°C° 0.2 mm 4 mps 740 mmHg 91%
    22:00 +17°C° 0.5 mm 4 mps 740 mmHg 92%
    23:00 +17°C° 0.5 mm 4 mps 739 mmHg 93%

    22 September, Sunday

    Time Temperature Precipitation Wind Pressure Humidity
    00:00 +17°C° 0.5 mm 4 mps 739 mmHg 94%
    01:00 +15°C° 0.2 mm 4 mps 739 mmHg 94%
    02:00 +15°C° 0.2 mm 4 mps 740 mmHg 94%
    03:00 +15°C° 0.2 mm 4 mps 740 mmHg 93%
    04:00 +14°C° 0 mm 4 mps 740 mmHg 94%
    05:00 +14°C° 0 mm 4 mps 740 mmHg 94%
    06:00 +13°C° 0 mm 4 mps 740 mmHg 95%
    07:00 +14°C° 0.1 mm 4 mps 740 mmHg 91%
    08:00 +14°C° 0.1 mm 5 mps 741 mmHg 87%
    09:00 +15°C° 0.1 mm 6 mps 741 mmHg 83%
    10:00 +16°C° 0 mm 6 mps 741 mmHg 78%
    11:00 +17°C° 0 mm 6 mps 741 mmHg 73%
    12:00 +17°C° 0 mm 6 mps 741 mmHg 67%
    13:00 +17°C° 0.2 mm 6 mps 741 mmHg 70%
    14:00 +17°C° 0.2 mm 7 mps 741 mmHg 72%
    15:00 +16°C° 0.2 mm 7 mps 742 mmHg 74%
    16:00 +15°C° 0 mm 7 mps 742 mmHg 76%
    17:00 +14°C° 0 mm 7 mps 742 mmHg 79%
    18:00 +13°C° 0 mm 6 mps 742 mmHg 81%
    19:00 +11°C° 0 mm 6 mps 743 mmHg 83%
    20:00 +12°C° 0 mm 5 mps 744 mmHg 85%
    21:00 +10°C° 0 mm 5 mps 744 mmHg 87%
    22:00 +11°C° 0 mm 4 mps 744 mmHg 89%
    23:00 +11°C° 0 mm 4 mps 744 mmHg 91%

    23 September, Monday

    Time Temperature Precipitation Wind Pressure Humidity
    00:00 +10°C° 0 mm 3 mps 745 mmHg 93%
    01:00 +10°C° 0 mm 3 mps 745 mmHg 92%
    02:00 +10°C° 0 mm 3 mps 745 mmHg 92%
    03:00 +10°C° 0 mm 3 mps 745 mmHg 92%
    04:00 +10°C° 0 mm 3 mps 744 mmHg 93%
    05:00 +10°C° 0 mm 3 mps 744 mmHg 93%
    06:00 +10°C° 0 mm 3 mps 744 mmHg 93%
    07:00 +12°C° 0 mm 4 mps 744 mmHg 92%
    08:00 +13°C° 0 mm 5 mps 743 mmHg 90%
    09:00 +14°C° 0 mm 5 mps 743 mmHg 89%
    10:00 +14°C° 0.4 mm 6 mps 743 mmHg 91%
    11:00 +14°C° 0.4 mm 6 mps 743 mmHg 93%
    12:00 +14°C° 0.4 mm 6 mps 742 mmHg 95%
    13:00 +15°C° 0.9 mm 5 mps 742 mmHg 96%
    14:00 +15°C° 0.9 mm 5 mps 742 mmHg 97%
    15:00 +17°C° 0.9 mm 4 mps 742 mmHg 98%
    16:00 +16°C° 0.3 mm 5 mps 742 mmHg 97%
    17:00 +16°C° 0.3 mm 5 mps 742 mmHg 96%
    18:00 +16°C° 0.3 mm 6 mps 742 mmHg 96%
    19:00 +16°C° 0.1 mm 6 mps 743 mmHg 96%
    20:00 +15°C° 0.1 mm 5 mps 743 mmHg 96%
    21:00 +15°C° 0.1 mm 5 mps 744 mmHg 97%
    22:00 +15°C° 0 mm 4 mps 744 mmHg 97%
    23:00 +15°C° 0 mm 4 mps 744 mmHg 97%
    Show more